Date String (YYYY-MM-DD hh:mm:ss) UTC,Instrument flags,absolute air pressure of the measurement (hPa),sample flow rate (lpm),inlet stack bypass flow (lpm),air temperature of the measurement (°C),ambient temperature measured by the external sensor (°C),aerosol sample conditioner tube jacket temperature (°C),OPC LED temperature (°C),internal box temperature (°C),relative humidity of the measurement (%),span deviation,mass concentration of particles derived from Lorenz-Mie calculation of OPC scattering (μg/m³),mass concentration of particles derived from Lorenz-Mie calculation of OPC scattering (μg/m³),mass concentration of particles derived from Lorenz-Mie calculation of OPC scattering (μg/m³)
DateTimeUTC,F1_M11,P_M11,Q1_M11,Q2_M11,T1_M11,T2_M11,T3_M11,T4_M11,T5_M11,U1_M11,ZSPAN_M11,X2_M11,X0_M11,X1_M11
2023-08-24 09:00:00,SystemResetWarning,0833.4,5.00,000.00,028.1,026.7,000.0,036.5,029.8,31.5,0002.1,0007.70,0014.74,0006.88
2023-08-24 09:01:00,SystemResetWarning,0833.5,5.00,000.00,028.1,026.9,000.0,036.5,029.9,31.5,0001.9,0007.76,0014.31,0006.90
2023-08-24 09:02:00,SystemResetWarning,0833.5,5.01,000.00,028.2,027.0,000.0,036.5,029.9,31.6,0001.8,0007.79,0014.41,0006.91
2023-08-24 09:03:00,SystemResetWarning,0833.5,5.00,000.00,028.2,027.1,000.0,036.5,030.0,31.7,0001.8,0007.83,0014.32,0006.93
2023-08-24 09:04:00,SystemResetWarning,0833.5,4.98,000.00,028.2,026.0,000.0,036.5,029.8,31.9,0001.4,0007.85,0013.90,0006.94
2023-08-24 09:05:00,SystemResetWarning,0833.4,5.01,000.00,028.1,024.7,000.0,036.4,029.5,31.9,0001.1,0007.83,0014.30,0006.94
2023-08-24 09:06:00,SystemResetWarning,0833.4,5.01,000.00,028.0,024.5,000.0,036.3,029.4,32.2,0001.2,0007.80,0014.18,0006.93
2023-08-24 09:07:00,SystemResetWarning,0833.6,5.00,000.00,028.0,024.8,000.0,036.4,029.4,32.6,0001.2,0007.75,0014.01,0006.92
2023-08-24 09:08:00,SystemResetWarning,0833.4,5.00,000.00,028.0,025.2,000.0,036.4,029.4,31.8,0001.0,0007.77,0014.24,0006.91
2023-08-24 09:09:00,SystemResetWarning,0833.5,5.00,000.00,028.0,025.5,000.0,036.4,029.5,32.1,0000.8,0007.77,0014.24,0006.90
2023-08-24 09:10:00,SystemResetWarning,0833.4,5.00,000.00,028.0,025.8,000.0,036.4,029.6,32.2,0000.5,0007.74,0013.70,0006.90
2023-08-24 09:11:00,SystemResetWarning,0833.4,4.99,000.00,028.0,026.1,000.0,036.5,029.7,32.2,0000.8,0007.72,0013.91,0006.90
2023-08-24 09:12:00,SystemResetWarning,0833.4,5.00,000.00,028.1,026.4,000.0,036.5,029.7,32.3,0001.1,0007.70,0014.35,0006.89
2023-08-24 09:13:00,SystemResetWarning,0833.4,5.00,000.00,028.1,026.6,000.0,036.5,029.8,32.0,0001.2,0007.69,0015.47,0006.89
2023-08-24 09:14:00,SystemResetWarning,0833.6,5.01,000.00,028.1,026.7,000.0,036.5,029.8,31.6,0001.2,0007.73,0015.77,0006.89
2023-08-24 09:15:00,SystemResetWarning,0833.4,5.01,000.00,028.2,026.9,000.0,036.5,029.9,31.4,0001.2,0007.75,0015.89,0006.90
2023-08-24 09:16:00,SystemResetWarning,0833.4,5.00,000.00,028.2,027.0,000.0,036.5,029.9,31.2,0001.1,0007.73,0015.60,0006.90
2023-08-24 09:17:00,SystemResetWarning,0833.4,5.00,000.00,028.2,027.0,000.0,036.6,030.0,31.1,0001.2,0007.76,0015.75,0006.89
2023-08-24 09:18:00,SystemResetWarning,0833.4,4.98,000.00,028.2,025.7,000.0,036.5,029.8,31.1,0001.2,0007.80,0016.02,0006.88
2023-08-24 09:19:00,SystemResetWarning,0833.4,5.01,000.00,028.1,024.6,000.0,036.4,029.5,31.3,0001.2,0007.75,0015.92,0006.86
2023-08-24 09:20:00,SystemResetWarning,0833.4,5.01,000.00,028.0,024.5,000.0,036.3,029.4,31.4,0001.1,0007.71,0015.31,0006.85
2023-08-24 09:21:00,SystemResetWarning,0833.4,5.00,000.00,028.0,024.8,000.0,036.4,029.4,31.3,0001.1,0007.66,0015.08,0006.82
2023-08-24 09:22:00,SystemResetWarning,0833.4,5.01,000.00,027.9,025.2,000.0,036.4,029.4,31.2,0001.0,0007.63,0014.69,0006.80
2023-08-24 09:23:00,SystemResetWarning,0833.4,4.99,000.00,028.0,025.5,000.0,036.4,029.5,31.2,0001.0,0007.63,0014.40,0006.79
2023-08-24 09:24:00,SystemResetWarning,0833.4,5.00,000.00,028.0,025.9,000.0,036.5,029.6,30.8,0000.9,0007.57,0013.07,0006.76
2023-08-24 09:25:00,SystemResetWarning,0833.4,5.00,000.00,028.0,026.2,000.0,036.5,029.7,30.6,0000.9,0007.52,0012.78,0006.71
2023-08-24 09:26:00,SystemResetWarning,0833.4,4.99,000.00,028.1,026.4,000.0,036.5,029.7,30.6,0000.8,0007.50,0012.57,0006.69
2023-08-24 09:27:00,SystemResetWarning,0833.4,5.00,000.00,028.1,026.6,000.0,036.5,029.8,30.7,0000.9,0007.50,0012.27,0006.67
2023-08-24 09:28:00,SystemResetWarning,0833.4,5.00,000.00,028.1,026.8,000.0,036.5,029.8,30.7,0001.0,0007.50,0012.51,0006.68
2023-08-24 09:29:00,SystemResetWarning,0833.4,5.00,000.00,028.2,026.9,000.0,036.5,029.9,30.5,0000.9,0007.51,0012.62,0006.70
2023-08-24 09:30:00,SystemResetWarning,0833.4,5.00,000.00,028.2,027.0,000.0,036.6,029.9,30.3,0000.7,0007.54,0012.53,0006.73
2023-08-24 09:31:00,SystemResetWarning,0833.4,5.00,000.00,028.3,027.0,000.0,036.6,029.9,30.2,0000.7,0007.58,0012.82,0006.74
2023-08-24 09:32:00,SystemResetWarning,0833.4,4.98,000.00,028.2,025.5,000.0,036.5,029.7,30.2,0000.8,0007.60,0012.96,0006.77
2023-08-24 09:33:00,SystemResetWarning,0833.4,5.01,000.00,028.1,024.6,000.0,036.4,029.5,30.2,0000.8,0007.61,0012.94,0006.77
2023-08-24 09:34:00,SystemResetWarning,0833.4,5.01,000.00,028.0,024.6,000.0,036.4,029.4,30.2,0001.0,0007.59,0013.04,0006.76
2023-08-24 09:35:00,SystemResetWarning,0833.4,4.99,000.00,028.0,024.9,000.0,036.4,029.4,30.3,0001.1,0007.63,0013.26,0006.77
2023-08-24 09:36:00,SystemResetWarning,0833.5,5.00,000.00,028.0,025.3,000.0,036.4,029.5,30.3,0001.0,0007.64,0014.11,0006.78
2023-08-24 09:37:00,SystemResetWarning,0833.4,5.00,000.00,028.0,025.6,000.0,036.5,029.5,30.2,0001.0,0007.63,0014.34,0006.78
2023-08-24 09:38:00,SystemResetWarning,0833.4,5.00,000.00,028.0,025.9,000.0,036.5,029.6,30.0,0000.8,0007.61,0014.36,0006.79
2023-08-24 09:39:00,SystemResetWarning,0833.4,5.00,000.00,028.0,026.2,000.0,036.5,029.7,30.1,0000.8,0007.62,0014.32,0006.80
2023-08-24 09:40:00,SystemResetWarning,0833.4,5.00,000.00,028.1,026.4,000.0,036.5,029.8,30.0,0000.5,0007.61,0013.96,0006.79
2023-08-24 09:41:00,SystemResetWarning,0833.4,5.00,000.00,028.1,026.6,000.0,036.5,029.8,29.8,0000.8,0007.61,0014.11,0006.79
2023-08-24 09:42:00,SystemResetWarning,0833.4,5.00,000.00,028.2,026.8,000.0,036.5,029.9,29.8,0000.9,0007.56,0013.80,0006.78
2023-08-24 09:43:00,SystemResetWarning,0833.4,4.99,000.00,028.2,026.9,000.0,036.6,029.9,29.8,0001.1,0007.54,0014.56,0006.75
2023-08-24 09:44:00,SystemResetWarning,0833.4,5.00,000.00,028.2,027.1,000.0,036.6,029.9,29.8,0001.0,0007.51,0014.46,0006.74
2023-08-24 09:45:00,SystemResetWarning,0833.4,5.00,000.00,028.3,027.2,000.0,036.6,030.0,29.7,0000.7,0007.49,0014.31,0006.74
2023-08-24 09:46:00,SystemResetWarning,0833.4,5.00,000.00,028.3,026.3,000.0,036.5,029.9,29.5,0000.6,0007.48,0014.18,0006.74
2023-08-24 09:47:00,SystemResetWarning,0833.3,5.01,000.00,028.2,024.4,000.0,036.4,029.5,29.7,0000.7,0007.50,0013.73,0006.74
2023-08-24 09:48:00,SystemResetWarning,0833.3,5.00,000.00,028.1,023.6,000.0,036.3,029.3,29.8,0000.9,0007.51,0013.32,0006.74
2023-08-24 09:49:00,SystemResetWarning,0833.3,5.01,000.00,027.9,023.7,000.0,036.3,029.2,30.1,0001.1,0007.52,0013.34,0006.74
2023-08-24 09:50:00,SystemResetWarning,0833.3,5.00,000.00,027.9,024.1,000.0,036.3,029.2,30.2,0001.1,0007.51,0013.39,0006.72
2023-08-24 09:51:00,SystemResetWarning,0833.3,5.00,000.00,027.8,024.6,000.0,036.4,029.3,30.2,0001.1,0007.49,0013.32,0006.70
2023-08-24 09:52:00,SystemResetWarning,0833.4,5.00,000.00,027.9,025.1,000.0,036.4,029.4,30.1,0001.1,0007.45,0013.09,0006.67
2023-08-24 09:53:00,SystemResetWarning,0833.3,5.00,000.00,027.9,025.4,000.0,036.4,029.4,30.2,0001.0,0007.45,0013.11,0006.68
2023-08-24 09:54:00,SystemResetWarning,0833.4,5.00,000.00,027.9,025.8,000.0,036.4,029.5,30.1,0000.9,0007.48,0012.33,0006.69
2023-08-24 09:55:00,SystemResetWarning,0833.4,5.00,000.00,027.9,026.1,000.0,036.4,029.6,30.1,0001.0,0007.53,0012.09,0006.70
2023-08-24 09:56:00,SystemResetWarning,0833.4,5.00,000.00,028.0,026.3,000.0,036.4,029.6,30.0,0001.0,0007.61,0012.18,0006.74
2023-08-24 09:57:00,SystemResetWarning,0833.4,5.00,000.00,028.0,026.5,000.0,036.4,029.7,29.9,0001.2,0007.67,0012.39,0006.78
2023-08-24 09:58:00,SystemResetWarning,0833.4,4.99,000.00,028.0,026.7,000.0,036.4,029.7,29.8,0001.3,0007.68,0012.44,0006.80
2023-08-24 09:59:00,SystemResetWarning,0833.4,5.00,000.00,028.1,026.8,000.0,036.5,029.8,29.7,0001.2,0007.69,0012.59,0006.82
